Regional Weather Roundup
Issued by NWS

Home | Current Version | Previous Version | Graphics & Text | Print | Product List | Glossary On
Versions: 1 2 3 4 5 6 7 8 9 10 11 12 13 14 15 16 17 18 19 20 21 22 23 24 25 26 27 28 29 30 31 32 33 34 35 36 37 38 39 40 41 42 43 44 45 46 47 48 49 50
571
ASUS43 KDMX 270601
RWRIA

WEATHER ROUNDUP FOR IOWA
NATIONAL WEATHER SERVICE DES MOINES IA
1200 AM CST MON FEB 27 2017

NOTE: "FAIR" INDICATES FEW OR NO CLOUDS BELOW 12,000 FEET WITH NO
SIGNIFICANT WEATHER AND/OR OBSTRUCTIONS TO VISIBILITY.

* - THESE STATIONS ARE NOT NWS STATIONS...THUS NOT UNDER NWS
QUALITY CONTROL.  THEY ALSO DO NOT REPORT WEATHER SUCH
AS PRECIPITATION OR FOG.

IAZ001>003-012>014-020>022-031>034-043>046-270700-
   NORTHWEST IOWA

CITY           SKY/WX    TMP DP  RH WIND       PRES   REMARKS
CARROLL *      CLEAR     27  25  93 SW3       30.00R
CHEROKEE *     CLEAR     16  16  99 CALM      29.97S FOG
DENISON *      CLEAR     23  21  93 CALM      29.98R
LE MARS *      CLEAR     23  21  93 CALM      29.97S
SHELDON *      CLEAR     27  27 100 S10       29.93S WCI  17
SIOUX CITY     CLEAR     21  18  88 E8        29.97F WCI  11
6HR MIN TEMP:  19; 6HR MAX TEMP:  35;

SPENCER        CLEAR     20  17  88 SW5       29.96S WCI  13
6HR MIN TEMP:  20; 6HR MAX TEMP:  30;

STORM LAKE *   CLEAR     25  19  80 SW7       29.96F WCI  17
$$

IAZ055>058-069>071-079>083-090>094-270700-
   SOUTHWEST IOWA

CITY           SKY/WX    TMP DP  RH WIND       PRES   REMARKS
ATLANTIC *     CLEAR     25  25 100 CALM      30.01S
AUDUBON *      CLEAR     21  18  86 CALM      30.00S
CLARINDA *     PTCLDY    25  25 100 CALM      30.04F
COUNCIL BLFS * CLEAR     28  25  86 SE8       30.00S WCI  20
CRESTON *      CLOUDY    32  23  69 SE5       30.02S WCI  27
HARLAN  *      CLEAR     23  23 100 CALM      30.04S
LAMONI         PTCLDY    34  20  56 CALM      30.01S
6HR MIN TEMP:  28; 6HR MAX TEMP:  45;

RED OAK *      CLEAR     25  23  93 CALM      30.02S
SHENANDOAH *   CLEAR     25  23  93 NE3       30.02F
$$

IAZ047>049-059>061-072>074-084-270700-
   CENTRAL IOWA

CITY           SKY/WX    TMP DP  RH WIND       PRES   REMARKS
AMES           CLEAR     25  25 100 CALM      30.02S
6HR MIN TEMP:  24; 6HR MAX TEMP:  35;

ANKENY *       CLOUDY    27  23  86 CALM      30.04S
BOONE *        CLEAR     27  27 100 S6        30.00S WCI  20
CHARITON *     CLOUDY    32  23  69 E6        30.02S WCI  26
DES MOINES     MOCLDY    32  21  64 SE6       30.03S WCI  26
6HR MIN TEMP:  30; 6HR MAX TEMP:  41;

GRINNELL*      PTCLDY    29  24  82 CALM      30.04F
MARSHALLTOWN   CLEAR     26  24  92 SE6       30.03R WCI  19
6HR MIN TEMP:  24; 6HR MAX TEMP:  32;

NEWTON *       CLOUDY    28  23  80 SE3       30.02F
PELLA *        PTCLDY    32  23  69 CALM      30.05S
PERRY *          N/A     26  25  96 S6        30.02R WCI  19
$$

IAZ004>006-015-016-023>025-035-036-270700-
   NORTH CENTRAL IOWA

CITY           SKY/WX    TMP DP  RH WIND       PRES   REMARKS
ALGONA *       CLEAR     18  18 100 S9        29.97S WCI   6
CLARION *        N/A     18  18 100 S6        30.00S WCI   9
ESTHERVILLE    CLEAR     24  20  84 S14       29.95S WCI  12
6HR MIN TEMP:  20; 6HR MAX TEMP:  30;

FORT DODGE *   PTCLDY    18  12  79 S3        30.00S
MASON CITY     CLEAR     15  13  91 S6        30.00S WCI   6
6HR MIN TEMP:  15; 6HR MAX TEMP:  27;

FOREST CITY *  FOG        9   5  85 CALM      29.98F VSB<1/4
WEBSTER CITY * CLEAR     19  18  93 S7        29.99S WCI  10
IOWA FALLS *     N/A     24  22  91 S5        30.02S WCI  18
$$

IAZ007>011-017>019-026>030-037>042-050>054-066-270700-
   NORTHEAST IOWA

CITY           SKY/WX    TMP DP  RH WIND       PRES   REMARKS
CEDAR RAPIDS   MOCLDY    29  26  89 CALM      30.04S
6HR MIN TEMP:  26; 6HR MAX TEMP:  36;

CHARLES CITY * CLEAR     21  23 100 CALM      30.01S
CLINTON *      CLOUDY    32  26  78 W7        30.07R WCI  26
DECORAH *      CLEAR     25  21  86 S3        30.01R
DUBUQUE        CLEAR     26  22  84 SW6       30.04R WCI  19
6HR MIN TEMP:  25; 6HR MAX TEMP:  37;

MONTICELLO *   CLOUDY    27  25  93 CALM      30.05R
OELWEIN *      CLEAR     25  25 100 S5        30.03R WCI  19
WATERLOO       CLEAR     23  20  88 CALM      30.03R
6HR MIN TEMP:  20; 6HR MAX TEMP:  32;

$$

IAZ064-065-067-068-078-270700-
   EAST CENTRAL IOWA

CITY           SKY/WX    TMP DP  RH WIND       PRES   REMARKS
DAVENPORT      CLOUDY    31  26  82 CALM      30.06S
6HR MIN TEMP:  30; 6HR MAX TEMP:  41;

IOWA CITY      PTCLDY    31  24  75 CALM      30.07S
6HR MIN TEMP:  29; 6HR MAX TEMP:  44;

MUSCATINE *    CLOUDY    32  27  80 CALM      30.07S
QUAD CITIES    PTCLDY    31  28  89 SE3       30.06S
6HR MIN TEMP:  31; 6HR MAX TEMP:  46;

$$

IAZ062-063-075>077-085>089-095>099-270700-
   SOUTHEAST IOWA

CITY           SKY/WX    TMP DP  RH WIND       PRES   REMARKS
BURLINGTON     CLEAR     33  28  81 S7        30.06F WCI  27
6HR MIN TEMP:  33; 6HR MAX TEMP:  45;

FAIRFIELD *    PTCLDY    30  27  86 CALM      30.04F
KEOKUK *       CLEAR     34  30  86 SW6       30.06F WCI  29
CENTERVILLE *    N/A     32  27  80 CALM      30.04F
OTTUMWA        PTCLDY    31  23  72 SE6       30.04S WCI  25
6HR MIN TEMP:  30; 6HR MAX TEMP:  45;

WASHINGTON *   CLOUDY    30  27  86 SE3       30.06S
$$

ABBREVIATIONS USED IN REMARKS
   TC - TEMPERATURES IN CELSIUS
  WCI - WIND CHILL INDEX
   HX - HEAT INDEX
  VSB - VISIBILITY
$$





USA.gov is the U.S. government's official web portal to all federal, state and local government web resources and services.